This demonstration page uses our WeatherBlox Daily Observations layout. Learn more.

Left ArrowRight Arrow

38.20091, -84.87328

Hourly Observations for August 20, 2018

Temp ( °F °C ) Dew Point ( °F °C ) Humidity (%) Winds ( mph kmh ) Pressure ( in mb ) Visibility ( mi km ) Precip ( " mm )
12:53 am 00:53 Clear 74 23.3 70 21.1 88 88 ESE 3 6 29.95 1014 10 16 0.00 0.00
1:53 am 01:53 Mostly Cloudy 74 23.3 70 21.1 88 88 E 3 6 29.94 1014 10 16 0.00 0.00
2:53 am 02:53 Clear 73 22.8 69 20.6 87 87 ESE 3 6 29.93 1014 10 16 0.00 0.00
3:53 am 03:53 Mostly Clear 73 22.8 69 20.6 87 87 Calm 29.93 1014 10 16 0.00 0.00
4:53 am 04:53 Clear 72 22.2 69 20.6 91 91 Calm 29.92 1013 10 16 0.00 0.00
5:53 am 05:53 Mostly Clear 71 21.7 69 20.6 94 94 E 3 6 29.91 1013 8 13 0.00 0.00
6:53 am 06:53 Mostly Clear with Mist and Fog 71 21.7 69 20.6 94 94 Calm 29.93 1014 6 10 0.00 0.00
7:53 am 07:53 Cloudy 73 22.8 70 21.1 90 90 SE 3 6 29.94 1014 9 14 0.00 0.00
8:53 am 08:53 Partly Cloudy 74 23.3 71 21.7 91 91 SSE 6 9 29.95 1014 9 14 0.00 0.00
9:53 am 09:53 Sunny 77 25 72 22.2 85 85 SSE 8 13 29.95 1014 10 16 0.00 0.00
10:53 am 10:53 Sunny 82 27.8 75 23.9 79 79 SSE 5 7 29.94 1014 10 16 0.00 0.00
11:32 am 11:32 Mostly Cloudy 81 27.2 74 23.3 79 79 S 6 9 29.94 1014 10 16 0.00 0.00
11:53 am 11:53 Mostly Cloudy 84 28.9 75 23.9 74 74 S 9 15 29.92 1013 10 16 0.00 0.00
12:07 pm 12:07 Mostly Cloudy 84 28.9 73 22.8 70 70 S 12 19 29.91 1013 10 16 0.00 0.00
12:53 pm 12:53 Mostly Cloudy 84 28.9 72 22.2 67 67 S 10 17 29.91 1013 10 16 0.00 0.00
1:53 pm 13:53 Cloudy 81 27.2 75 23.9 82 82 SSW 9 15 29.91 1013 8 13 0.01 0.25
2:53 pm 14:53 Mostly Sunny 84 28.9 73 22.8 70 70 SSW 17 28 29.90 1013 10 16 0.00 0.03
3:53 pm 15:53 Partly Cloudy 84 28.9 72 22.2 67 67 SSW 16 26 29.88 1012 10 16 0.00 0.00
4:53 pm 16:53 Mostly Sunny 85 29.4 72 22.2 65 65 S 10 17 29.86 1011 10 16 0.00 0.00
5:53 pm 17:53 Mostly Sunny 84 28.9 71 21.7 65 65 S 14 22 29.84 1010 10 16 0.00 0.00
6:53 pm 18:53 Partly Cloudy 83 28.3 72 22.2 70 70 S 10 17 29.85 1011 10 16 0.00 0.00
7:53 pm 19:53 Mostly Cloudy 82 27.8 71 21.7 69 69 S 7 11 29.87 1011 10 16 0.00 0.00
8:53 pm 20:53 Clear 81 27.2 71 21.7 72 72 S 6 9 29.86 1011 10 16 0.00 0.00
9:53 pm 21:53 Clear 80 26.7 72 22.2 76 76 S 9 15 29.87 1012 10 16 0.00 0.00
10:53 pm 22:53 Clear 79 26.1 72 22.2 79 79 S 8 13 29.86 1011 10 16 0.00 0.00
11:53 pm 23:53 Clear 77 25 72 22.2 85 85 S 6 9 29.85 1011 10 16 0.00 0.00

Powered by AerisWeather